Starlink 30779

operational
NORAD ID: 58160 Int'l Des: 2023-166 Owner: SPXS Country: US Constellation: starlink
LEOCIRCULAR

Starlink 30779について

説明を読み込み中...

リアルタイム位置

3D地球を読み込み中...

次回通過

高度履歴

Altitude vs Time

uPlot chart will show altitude changes over time

軌道要素

1 58160U 23166L 25352.08778505 -.00001862 00000-0 -50748-4 0 9992
2 58160 53.1596 238.7903 0001299 93.8830 266.2320 15.30202064120686
Epoch: Dec 18, 2025 • Age: 12 hours

現在のステータス

高度 488.3 km
速度 7.62 km/s
衛星直下点 -38.01°S, 103.11°W
打ち上げ日 Oct 29, 2023
運用期間 2.1 years
タイプ internet

技術仕様

分類 Payload
質量 730.00 kg
乾燥質量 700.00 kg
総質量 730.00 kg
長さ 0.30 m
直径 4.10 m
スパン 29.00 m
形状 Box + pan
製造者 SPXS
バスタイプ Starlink V2M
フェーズステータス In Orbit
所有者/国 SPXS/US

大規模コンステレーション

Loading constellations...